Weather History for KDTL - January, 2013

Change the Weather History Date:

Friday, January 18, 2013

  Actual Average Record
Temperature  
Mean Temperature 20 °F -  
Max Temperature 30 °F 18 °F 45 °F (1981)
Min Temperature 10 °F -5 °F -42 °F (1967)
Degree Days  
Heating Degree Days 45    
Moisture  
Dew Point 19 °F    
Average Humidity 91    
Maximum Humidity 100    
Minimum Humidity 80    
Precipitation  
Precipitation 0.00 in - - ()
Sea Level Pressure  
Sea Level Pressure 29.80 in    
Wind  
Wind Speed 9 mph (South)    
Max Wind Speed 16 mph    
Max Gust Speed 20 mph    
Visibility 9 miles    
Events Snow    
Averages and records for this station are not official NWS values.
T = Trace of Precipitation, MM = Missing Value Source: NWS Daily Summary

Daily Weather History Graph

Daily Weather History Graph

Search for Another Location

Airport or City:

Trip Planner

Search our weather history database for the weather conditions in past years. The results will help you decide how hot, cold, wet, or windy it might be!

Date:

Astronomy

Jan. 18, 2013 Rise Set
Actual Time 8:01 AM CST 5:06 PM CST
Civil Twilight 7:28 AM CST 5:40 PM CST
Nautical Twilight 6:50 AM CST 6:17 PM CST
Astronomical Twilight 6:14 AM CST 6:54 PM CST
Moon 11:09 AM CST (1/18) 12:27 AM CST (1/18)
Length of Visible Light 10h 12m
Length of Day
9h 04m
Waxing Crescent, 47% of the Moon is Illuminated
Jan 18
Waxing Crescent
Jan 18
First Quarter
Jan 26
Full
Feb 3
Last Quarter
Feb 10
New

Hourly Weather History & Observations

Time (CST) Temp. Windchill Dew Point Humidity Pressure Visibility Wind Dir Wind Speed Gust Speed Precip Events Conditions
12:13 AM 10.4 °F -0.4 °F 8.6 °F 92% 30.12 in 3.0 mi SE 6.9 mph - N/A Snow Light Snow
12:33 AM 10.4 °F -2.4 °F 8.6 °F 92% 30.10 in 2.5 mi SE 9.2 mph - N/A Snow Light Snow
12:52 AM 12.2 °F -1.8 °F 8.6 °F 85% 30.09 in 4.0 mi SE 11.5 mph - N/A Snow Light Snow
1:13 AM 12.2 °F -0.2 °F 10.4 °F 92% 30.08 in 4.0 mi SE 9.2 mph - N/A Snow Light Snow
1:33 AM 12.2 °F 0.7 °F 10.4 °F 92% 30.06 in 4.0 mi SE 8.1 mph - N/A Snow Light Snow
1:52 AM 12.2 °F -1.8 °F 10.4 °F 92% 30.03 in 10.0 mi SE 11.5 mph - N/A   Mostly Cloudy
2:13 AM 12.2 °F -2.5 °F 10.4 °F 92% 30.00 in 10.0 mi SE 12.7 mph - N/A   Overcast
2:33 AM 14.0 °F -2.0 °F 12.2 °F 93% 29.97 in 10.0 mi SE 16.1 mph - N/A   Overcast
2:52 AM 14.0 °F -2.0 °F 12.2 °F 93% 29.96 in 10.0 mi SSE 16.1 mph - N/A   Mostly Cloudy
3:13 AM 14.0 °F -0.2 °F 12.2 °F 93% 29.95 in 10.0 mi SSE 12.7 mph - N/A   Mostly Cloudy
3:33 AM 15.8 °F 0.9 °F 14.0 °F 93% 29.93 in 10.0 mi SSE 15.0 mph - N/A   Overcast
3:52 AM 17.6 °F 3.7 °F 14.0 °F 86% 29.92 in 10.0 mi SSE 13.8 mph 19.6 mph N/A   Overcast
4:13 AM 17.6 °F 3.2 °F 15.8 °F 93% 29.90 in 10.0 mi SSE 15.0 mph - N/A   Overcast
4:33 AM 17.6 °F 2.7 °F 14.0 °F 86% 29.88 in 10.0 mi SSE 16.1 mph - N/A   Overcast
4:52 AM 17.6 °F 2.7 °F 14.0 °F 86% 29.86 in 10.0 mi SSE 16.1 mph - N/A   Scattered Clouds
5:13 AM 17.6 °F 4.3 °F 15.8 °F 93% 29.85 in 10.0 mi SSE 12.7 mph - N/A   Clear
5:33 AM 17.6 °F 5.0 °F 15.8 °F 93% 29.83 in 10.0 mi SSE 11.5 mph - N/A   Clear
5:52 AM 19.4 °F 6.6 °F 17.6 °F 93% 29.83 in 10.0 mi SSE 12.7 mph - N/A   Clear
6:13 AM 19.4 °F 7.9 °F 17.6 °F 93% 29.82 in 10.0 mi SSE 10.4 mph - N/A   Clear
6:32 AM 19.4 °F 8.6 °F 17.6 °F 93% 29.80 in 10.0 mi SSE 9.2 mph - N/A   Clear
6:53 AM 19.4 °F 8.6 °F 17.6 °F 93% 29.79 in 10.0 mi SE 9.2 mph - N/A   Clear
7:13 AM 19.4 °F 7.9 °F 17.6 °F 93% 29.77 in 10.0 mi SSE 10.4 mph - N/A   Clear
7:33 AM 19.4 °F 8.6 °F 17.6 °F 93% 29.78 in 10.0 mi SSE 9.2 mph - N/A   Clear
7:52 AM 19.4 °F 9.5 °F 17.6 °F 93% 29.78 in 10.0 mi SSE 8.1 mph - N/A   Clear
8:13 AM 19.4 °F 9.5 °F 17.6 °F 93% 29.78 in 10.0 mi SSE 8.1 mph - N/A   Scattered Clouds
8:33 AM 19.4 °F 8.6 °F 17.6 °F 93% 29.77 in 10.0 mi SSE 9.2 mph - N/A   Scattered Clouds
8:52 AM 19.4 °F 11.5 °F 17.6 °F 93% 29.77 in 10.0 mi ESE 5.8 mph - N/A   Scattered Clouds
9:13 AM 19.4 °F 10.4 °F 17.6 °F 93% 29.76 in 10.0 mi SE 6.9 mph - N/A   Clear
9:32 AM 19.4 °F 10.4 °F 17.6 °F 93% 29.76 in 10.0 mi SE 6.9 mph - N/A   Clear
9:53 AM 19.4 °F 9.5 °F 17.6 °F 93% 29.76 in 10.0 mi SE 8.1 mph - N/A   Clear
10:13 AM 21.2 °F 12.6 °F 17.6 °F 86% 29.76 in 10.0 mi SE 6.9 mph - N/A   Clear
10:32 AM 21.2 °F 11.7 °F 19.4 °F 93% 29.75 in 10.0 mi SE 8.1 mph - N/A   Clear
10:53 AM 23.0 °F 13.1 °F 19.4 °F 86% 29.74 in 10.0 mi SSE 9.2 mph - N/A   Clear
11:13 AM 23.0 °F 15.8 °F 19.4 °F 86% 29.73 in 10.0 mi SSE 5.8 mph - N/A   Clear
11:32 AM 26.6 °F 19.1 °F 21.2 °F 80% 29.71 in 10.0 mi South 6.9 mph - N/A   Clear
11:53 AM 26.6 °F 17.5 °F 23.0 °F 86% 29.75 in 10.0 mi West 9.2 mph - N/A   Clear
12:13 PM 28.4 °F 23.3 °F 23.0 °F 80% 29.73 in 10.0 mi West 4.6 mph - N/A   Scattered Clouds
12:32 PM 30.2 °F 24.3 °F 24.8 °F 80% 29.70 in 10.0 mi SW 5.8 mph - N/A   Scattered Clouds
12:53 PM 30.2 °F 23.4 °F 24.8 °F 80% 29.68 in 10.0 mi SSW 6.9 mph - N/A   Clear
1:13 PM 30.2 °F 23.4 °F 24.8 °F 80% 29.69 in 10.0 mi WSW 6.9 mph - N/A   Clear
1:32 PM 30.2 °F 22.6 °F 26.6 °F 86% 29.70 in 10.0 mi WNW 8.1 mph - N/A   Clear
1:53 PM 30.2 °F 21.9 °F 26.6 °F 86% 29.71 in 10.0 mi NW 9.2 mph - N/A   Clear
2:13 PM 30.2 °F 22.6 °F 26.6 °F 86% 29.71 in 10.0 mi NW 8.1 mph - N/A   Clear
2:32 PM 30.2 °F 26.7 °F 26.6 °F 86% 29.70 in 10.0 mi WNW 3.5 mph - N/A   Scattered Clouds
2:53 PM 30.2 °F 24.3 °F 26.6 °F 86% 29.70 in 10.0 mi WNW 5.8 mph - N/A   Clear
3:13 PM 30.2 °F - 26.6 °F 86% 29.69 in 10.0 mi Calm Calm - N/A   Clear
3:32 PM 30.2 °F 21.9 °F 26.6 °F 86% 29.71 in 10.0 mi NW 9.2 mph - N/A   Scattered Clouds
3:53 PM 28.4 °F 19.1 °F 26.6 °F 93% 29.73 in 10.0 mi NW 10.4 mph - N/A   Scattered Clouds
4:13 PM 28.4 °F 20.4 °F 24.8 °F 86% 29.74 in 10.0 mi NW 8.1 mph - N/A   Clear
4:32 PM 26.6 °F 19.1 °F 23.0 °F 86% 29.74 in 10.0 mi NW 6.9 mph - N/A   Clear
4:53 PM 24.8 °F 17.9 °F 23.0 °F 93% 29.74 in 7.0 mi NW 5.8 mph - N/A   Clear
5:13 PM 23.0 °F 17.0 °F 23.0 °F 100% 29.73 in 7.0 mi NW 4.6 mph - N/A   Clear
5:32 PM 23.0 °F 17.0 °F 21.2 °F 93% 29.74 in 7.0 mi NW 4.6 mph - N/A   Clear
5:53 PM 23.0 °F - 21.2 °F 93% 29.73 in 7.0 mi Calm Calm - N/A   Clear
6:13 PM 23.0 °F - 21.2 °F 93% 29.73 in 7.0 mi Calm Calm - N/A   Clear
6:32 PM 23.0 °F 18.4 °F 21.2 °F 93% 29.73 in 7.0 mi SSW 3.5 mph - N/A   Clear
6:53 PM 23.0 °F 18.4 °F 21.2 °F 93% 29.74 in 7.0 mi NW 3.5 mph - N/A   Clear
7:13 PM 23.0 °F 17.0 °F 21.2 °F 93% 29.75 in 10.0 mi WNW 4.6 mph - N/A   Clear
7:32 PM 23.0 °F 17.0 °F 21.2 °F 93% 29.74 in 7.0 mi NNW 4.6 mph - N/A   Clear
7:53 PM 23.0 °F 14.7 °F 21.2 °F 93% 29.76 in 7.0 mi NW 6.9 mph - N/A   Mostly Cloudy
8:13 PM 23.0 °F 15.8 °F 21.2 °F 93% 29.75 in 7.0 mi NNW 5.8 mph - N/A   Overcast
8:32 PM 23.0 °F 17.0 °F 21.2 °F 93% 29.75 in 7.0 mi NW 4.6 mph - N/A   Overcast
8:53 PM 21.2 °F - 21.2 °F 100% 29.74 in 7.0 mi Calm Calm - N/A   Mostly Cloudy
9:13 PM 21.2 °F - 21.2 °F 100% 29.74 in 7.0 mi Calm Calm - N/A   Scattered Clouds
9:32 PM 21.2 °F - 21.2 °F 100% 29.73 in 7.0 mi Calm Calm - N/A   Mostly Cloudy
9:53 PM 21.2 °F - 21.2 °F 100% 29.73 in 7.0 mi Calm Calm - N/A   Mostly Cloudy
10:13 PM 21.2 °F - 21.2 °F 100% 29.73 in 7.0 mi Calm Calm - N/A   Mostly Cloudy
10:32 PM 21.2 °F - 21.2 °F 100% 29.73 in 7.0 mi Calm Calm - N/A   Scattered Clouds
10:53 PM 21.2 °F 14.9 °F 21.2 °F 100% 29.72 in 7.0 mi South 4.6 mph - N/A   Clear
11:13 PM 21.2 °F 14.9 °F 21.2 °F 100% - 7.0 mi South 4.6 mph - N/A   Clear
11:32 PM 21.2 °F 13.6 °F 21.2 °F 100% 29.70 in 7.0 mi SSE 5.8 mph - N/A   Clear
11:53 PM 21.2 °F 12.6 °F 21.2 °F 100% 29.68 in 7.0 mi South 6.9 mph - N/A   Clear